Location: Newark
(34.0635°N, 86.7609°W)
Time: 06:27:07
(UTC+00:00)

N. Korean satellite - Pass Details

Date: 23 December 2019
Orbit: 454 x 508 km, 97.2° (Epoch: 20 January)

Event Time Altitude Azimuth Distance (km) Brightness Sun altitude
Rises 12:03:09 0° 359° (N) 2,483 9.9 -9.5°
Reaches altitude 10° 12:05:21 10° 348° (NNW) 1,600 8.9 -9.1°
Maximum altitude 12:08:22 30° 286° (WNW) 844 7.2 -8.5°
Drops below altitude 10° 12:11:22 10° 224° (SW) 1,584 9.0 -8.0°
Sets 12:13:33 0° 213° (SSW) 2,453 10.0 -7.6°
